Radiation Dose at Monitoring Post of Fukushima Daini Nuclear Power Station
Date,Time,MP-1(microSv/h),MP-2(microSv/h),MP-3(microSv/h),MP-4(microSv/h),MP-5(microSv/h),MP-6(microSv/h),MP-7(microSv/h),Wind Direction,Wind Velocity(m/s),Rain
2021/07/04,00:00,0.159,0.147,0.231,0.226,0.229,0.125,0.078,north-northwest,3.0,No
2021/07/04,00:10,0.159,0.148,0.233,0.223,0.230,0.125,0.078,north,3.9,No
2021/07/04,00:20,0.160,0.147,0.231,0.226,0.227,0.125,0.078,north-northwest,3.9,No
2021/07/04,00:30,0.159,0.148,0.233,0.224,0.229,0.125,0.078,north-northwest,3.9,No
2021/07/04,00:40,0.161,0.146,0.232,0.226,0.229,0.126,0.078,north,4.4,No
2021/07/04,00:50,0.159,0.147,0.232,0.224,0.229,0.124,0.077,north-northwest,4.1,No
2021/07/04,01:00,0.161,0.146,0.232,0.226,0.229,0.125,0.079,north-northeast,3.6,Yes
2021/07/04,01:10,0.160,0.147,0.232,0.223,0.228,0.125,0.078,northeast,3.1,No
2021/07/04,01:20,0.161,0.147,0.234,0.224,0.230,0.124,0.078,north,3.2,No
2021/07/04,01:30,0.160,0.147,0.230,0.225,0.228,0.125,0.079,north-northeast,3.3,No
2021/07/04,01:40,0.159,0.147,0.234,0.223,0.229,0.124,0.078,north,3.7,No
2021/07/04,01:50,0.160,0.145,0.231,0.225,0.228,0.125,0.078,north-northeast,4.6,No
2021/07/04,02:00,0.159,0.148,0.233,0.223,0.230,0.125,0.078,north-northeast,4.4,No
2021/07/04,02:10,0.161,0.146,0.231,0.225,0.229,0.125,0.079,north-northeast,3.1,No
2021/07/04,02:20,0.159,0.148,0.232,0.224,0.229,0.125,0.078,northeast,3.3,No
2021/07/04,02:30,0.160,0.147,0.231,0.225,0.230,0.124,0.079,north,2.2,No
2021/07/04,02:40,0.160,0.147,0.232,0.224,0.228,0.125,0.078,north-northwest,2.1,No
2021/07/04,02:50,0.160,0.147,0.232,0.224,0.230,0.125,0.078,north-northwest,3.2,No
2021/07/04,03:00,0.161,0.148,0.230,0.225,0.227,0.124,0.079,north-northwest,3.7,No
2021/07/04,03:10,0.159,0.147,0.232,0.223,0.229,0.126,0.078,north,4.2,No
2021/07/04,03:20,0.160,0.147,0.231,0.225,0.230,0.124,0.079,north,4.5,No
2021/07/04,03:30,0.159,0.147,0.232,0.223,0.228,0.126,0.078,north,3.7,No
2021/07/04,03:40,0.161,0.146,0.230,0.225,0.230,0.125,0.078,north-northwest,3.8,No
2021/07/04,03:50,0.159,0.147,0.234,0.224,0.227,0.125,0.078,north-northwest,3.9,No
2021/07/04,04:00,0.160,0.146,0.230,0.224,0.230,0.125,0.078,north-northwest,3.3,No
2021/07/04,04:10,0.160,0.148,0.233,0.225,0.228,0.125,0.079,north-northwest,3.6,No
2021/07/04,04:20,0.160,0.147,0.231,0.224,0.229,0.125,0.079,north-northwest,4.5,No
2021/07/04,04:30,0.160,0.148,0.232,0.225,0.228,0.126,0.078,north-northwest,5.2,No
2021/07/04,04:40,0.159,0.147,0.233,0.224,0.228,0.125,0.079,north-northwest,4.3,No
2021/07/04,04:50,0.160,0.147,0.232,0.225,0.231,0.124,0.079,north-northwest,3.9,Yes
2021/07/04,05:00,0.160,0.146,0.232,0.224,0.228,0.125,0.079,north-northwest,4.5,Yes
2021/07/04,05:10,0.161,0.148,0.231,0.226,0.230,0.127,0.079,north-northwest,4.4,Yes
2021/07/04,05:20,0.160,0.147,0.233,0.225,0.229,0.126,0.080,north-northwest,3.2,Yes
2021/07/04,05:30,0.161,0.148,0.233,0.226,0.232,0.127,0.079,north-northwest,3.7,Yes
2021/07/04,05:40,0.162,0.149,0.234,0.225,0.230,0.126,0.080,north-northwest,3.3,Yes
2021/07/04,05:50,0.162,0.150,0.233,0.226,0.229,0.127,0.080,northwest,3.4,Yes
2021/07/04,06:00,0.163,0.149,0.234,0.228,0.229,0.127,0.080,north-northwest,3.2,Yes
2021/07/04,06:10,0.163,0.150,0.233,0.225,0.229,0.127,0.079,northwest,3.5,Yes
2021/07/04,06:20,0.163,0.149,0.235,0.226,0.231,0.127,0.080,north-northwest,3.2,Yes
2021/07/04,06:30,0.162,0.150,0.232,0.225,0.227,0.127,0.080,north,2.6,Yes
2021/07/04,06:40,0.164,0.150,0.235,0.227,0.231,0.128,0.080,north,4.5,Yes
2021/07/04,06:50,0.161,0.150,0.232,0.225,0.230,0.129,0.081,northwest,2.8,Yes
2021/07/04,07:00,0.164,0.151,0.235,0.227,0.233,0.129,0.082,north-northwest,3.1,Yes
2021/07/04,07:10,0.163,0.151,0.233,0.226,0.231,0.129,0.083,north-northwest,3.4,Yes
2021/07/04,07:20,0.163,0.150,0.234,0.226,0.231,0.128,0.082,north-northwest,3.0,Yes
2021/07/04,07:30,0.162,0.150,0.232,0.227,0.232,0.129,0.082,north,3.1,Yes
2021/07/04,07:40,0.163,0.151,0.233,0.226,0.230,0.127,0.081,north-northeast,3.2,Yes
2021/07/04,07:50,0.162,0.149,0.233,0.227,0.231,0.128,0.081,north,3.1,Yes
2021/07/04,08:00,0.162,0.151,0.234,0.225,0.228,0.128,0.082,north-northeast,3.2,Yes
2021/07/04,08:10,0.163,0.149,0.232,0.227,0.233,0.128,0.082,north,2.9,Yes
2021/07/04,08:20,0.162,0.150,0.234,0.225,0.230,0.128,0.082,north,2.2,Yes
2021/07/04,08:30,0.162,0.149,0.234,0.228,0.231,0.129,0.082,northeast,1.5,Yes
2021/07/04,08:40,0.162,0.151,0.234,0.228,0.233,0.130,0.083,northeast,3.0,Yes
2021/07/04,08:50,0.163,0.150,0.235,0.228,0.233,0.130,0.085,northeast,2.6,Yes
2021/07/04,09:00,0.163,0.151,0.235,0.229,0.235,0.131,0.085,east-northeast,1.6,Yes
2021/07/04,09:10,0.162,0.149,0.236,0.226,0.231,0.131,0.084,east-northeast,0.9,Yes
2021/07/04,09:20,0.162,0.150,0.232,0.227,0.233,0.128,0.083,northeast,1.4,Yes
2021/07/04,09:30,0.161,0.149,0.233,0.224,0.231,0.129,0.081,northeast,1.1,Yes
2021/07/04,09:40,0.161,0.148,0.231,0.226,0.229,0.127,0.081,east-northeast,1.5,Yes
2021/07/04,09:50,0.158,0.148,0.231,0.225,0.231,0.127,0.081,northeast,1.7,Yes
2021/07/04,10:00,0.162,0.147,0.232,0.224,0.228,0.128,0.082,northeast,1.5,Yes
2021/07/04,10:10,0.159,0.149,0.231,0.225,0.231,0.127,0.082,east-northeast,1.6,Yes
2021/07/04,10:20,0.161,0.148,0.232,0.224,0.231,0.129,0.082,east,1.3,Yes
2021/07/04,10:30,0.163,0.149,0.230,0.226,0.231,0.128,0.082,east,1.0,Yes
2021/07/04,10:40,0.162,0.149,0.234,0.225,0.232,0.128,0.083,northeast,1.4,Yes
2021/07/04,10:50,0.163,0.151,0.231,0.226,0.230,0.130,0.083,east-southeast,0.8,Yes
2021/07/04,11:00,0.162,0.150,0.235,0.227,0.233,0.130,0.083,northeast,1.7,Yes
2021/07/04,11:10,0.164,0.152,0.233,0.225,0.232,0.130,0.085,northeast,1.9,Yes
2021/07/04,11:20,0.164,0.153,0.235,0.229,0.234,0.131,0.084,northeast,1.3,Yes
2021/07/04,11:30,0.165,0.154,0.235,0.227,0.234,0.131,0.086,east-northeast,1.6,Yes
2021/07/04,11:40,0.164,0.153,0.235,0.229,0.232,0.132,0.086,east-northeast,1.0,Yes
2021/07/04,11:50,0.165,0.153,0.235,0.227,0.235,0.130,0.086,east-northeast,1.1,Yes
2021/07/04,12:00,0.165,0.153,0.234,0.228,0.232,0.131,0.085,northeast,1.1,Yes
2021/07/04,12:10,0.164,0.153,0.235,0.228,0.233,0.131,0.085,northeast,1.1,Yes
2021/07/04,12:20,0.164,0.153,0.233,0.228,0.231,0.130,0.086,northeast,1.2,Yes
2021/07/04,12:30,0.163,0.151,0.235,0.228,0.231,0.130,0.084,northeast,1.8,Yes
2021/07/04,12:40,0.164,0.152,0.233,0.225,0.233,0.130,0.084,east-northeast,1.3,Yes
2021/07/04,12:50,0.162,0.151,0.232,0.227,0.229,0.129,0.083,east,1.0,Yes
2021/07/04,13:00,0.162,0.151,0.233,0.227,0.232,0.129,0.083,east,1.3,Yes
2021/07/04,13:10,0.162,0.150,0.231,0.224,0.232,0.128,0.083,east-southeast,1.1,Yes
2021/07/04,13:20,0.160,0.150,0.233,0.226,0.230,0.129,0.083,east,1.8,Yes
2021/07/04,13:30,0.162,0.150,0.232,0.223,0.232,0.128,0.084,east-southeast,1.1,Yes
2021/07/04,13:40,0.161,0.149,0.232,0.226,0.230,0.129,0.083,east-southeast,1.9,Yes
2021/07/04,13:50,0.162,0.151,0.232,0.224,0.233,0.129,0.084,south-southeast,1.2,Yes
2021/07/04,14:00,0.163,0.151,0.233,0.227,0.232,0.129,0.084,east-southeast,1.2,Yes
2021/07/04,14:10,0.161,0.150,0.233,0.226,0.230,0.129,0.084,east-southeast,0.8,Yes
2021/07/04,14:20,0.163,0.150,0.232,0.225,0.233,0.128,0.084,southeast,0.8,Yes
2021/07/04,14:30,0.162,0.150,0.233,0.227,0.229,0.128,0.083,east-southeast,1.2,Yes
2021/07/04,14:40,0.163,0.150,0.231,0.224,0.232,0.128,0.083,east-southeast,0.8,Yes
2021/07/04,14:50,0.161,0.150,0.232,0.226,0.231,0.127,0.083,east-southeast,1.1,Yes
2021/07/04,15:00,0.161,0.149,0.231,0.223,0.229,0.128,0.083,east-southeast,0.7,Yes
2021/07/04,15:10,0.161,0.149,0.231,0.224,0.231,0.127,0.082,east,1.0,Yes
2021/07/04,15:20,0.159,0.148,0.231,0.225,0.228,0.126,0.082,east,1.0,Yes
2021/07/04,15:30,0.161,0.148,0.230,0.222,0.229,0.127,0.081,east-southeast,1.1,Yes
2021/07/04,15:40,0.159,0.148,0.230,0.225,0.229,0.126,0.080,east-southeast,1.2,Yes
2021/07/04,15:50,0.160,0.147,0.229,0.222,0.229,0.126,0.081,southeast,0.9,Yes
2021/07/04,16:00,0.161,0.148,0.230,0.223,0.230,0.125,0.081,-,CALM,Yes
2021/07/04,16:10,0.159,0.147,0.228,0.223,0.228,0.126,0.081,southeast,1.0,Yes
2021/07/04,16:20,0.159,0.148,0.230,0.220,0.230,0.125,0.080,southeast,1.1,Yes
2021/07/04,16:30,0.160,0.146,0.229,0.224,0.229,0.126,0.081,east-southeast,0.9,Yes
2021/07/04,16:40,0.159,0.149,0.229,0.221,0.228,0.127,0.081,southeast,1.2,Yes
2021/07/04,16:50,0.159,0.147,0.229,0.224,0.229,0.125,0.080,southeast,1.0,Yes
2021/07/04,17:00,0.160,0.148,0.229,0.223,0.228,0.127,0.082,southeast,1.1,Yes
2021/07/04,17:10,0.159,0.147,0.232,0.223,0.231,0.126,0.081,southeast,0.9,Yes
2021/07/04,17:20,0.160,0.148,0.229,0.224,0.228,0.126,0.081,south-southeast,0.7,Yes
2021/07/04,17:30,0.161,0.149,0.230,0.223,0.229,0.126,0.081,south,0.9,Yes
2021/07/04,17:40,0.159,0.147,0.230,0.224,0.228,0.126,0.081,south-southwest,2.9,Yes
2021/07/04,17:50,0.161,0.149,0.231,0.221,0.228,0.127,0.081,south-southwest,3.8,Yes
2021/07/04,18:00,0.160,0.149,0.229,0.224,0.230,0.127,0.082,east-southeast,2.4,Yes
2021/07/04,18:10,0.159,0.149,0.230,0.223,0.228,0.127,0.082,east-southeast,2.0,Yes
2021/07/04,18:20,0.160,0.147,0.230,0.224,0.231,0.127,0.082,east-southeast,2.4,Yes
2021/07/04,18:30,0.159,0.149,0.230,0.223,0.228,0.126,0.081,east-southeast,1.2,Yes
2021/07/04,18:40,0.160,0.148,0.230,0.222,0.229,0.126,0.082,east-southeast,1.4,Yes
2021/07/04,18:50,0.159,0.147,0.230,0.222,0.228,0.125,0.081,southeast,1.8,Yes
2021/07/04,19:00,0.160,0.147,0.231,0.220,0.229,0.126,0.080,southeast,1.6,Yes
2021/07/04,19:10,0.158,0.148,0.229,0.223,0.229,0.126,0.081,southeast,1.7,Yes
2021/07/04,19:20,0.159,0.148,0.231,0.222,0.227,0.126,0.081,southeast,2.4,Yes
2021/07/04,19:30,0.158,0.147,0.227,0.222,0.229,0.125,0.081,southeast,2.8,Yes
2021/07/04,19:40,0.157,0.147,0.228,0.221,0.226,0.125,0.080,south-southeast,3.3,Yes
2021/07/04,19:50,0.158,0.146,0.228,0.222,0.229,0.124,0.079,southeast,3.4,Yes
2021/07/04,20:00,0.157,0.146,0.229,0.221,0.226,0.123,0.079,southeast,3.1,No
2021/07/04,20:10,0.158,0.145,0.228,0.221,0.228,0.124,0.079,south-southeast,2.9,No
2021/07/04,20:20,0.156,0.146,0.227,0.220,0.228,0.123,0.079,south-southeast,3.3,No
2021/07/04,20:30,0.157,0.145,0.227,0.219,0.225,0.123,0.078,south-southeast,3.1,No
2021/07/04,20:40,0.157,0.146,0.227,0.221,0.227,0.124,0.078,south-southeast,2.9,No
2021/07/04,20:50,0.157,0.144,0.229,0.220,0.225,0.122,0.078,south-southeast,3.4,No
2021/07/04,21:00,0.158,0.145,0.226,0.220,0.227,0.123,0.077,south,4.2,No
2021/07/04,21:10,0.156,0.144,0.228,0.218,0.226,0.123,0.078,south-southeast,2.3,No
2021/07/04,21:20,0.157,0.144,0.226,0.220,0.226,0.122,0.078,south,3.7,No
2021/07/04,21:30,0.157,0.145,0.227,0.220,0.227,0.123,0.077,south,2.8,No
2021/07/04,21:40,0.155,0.144,0.227,0.220,0.224,0.122,0.078,south-southeast,3.2,No
2021/07/04,21:50,0.157,0.145,0.225,0.220,0.227,0.123,0.077,south,4.8,No
2021/07/04,22:00,0.154,0.144,0.227,0.218,0.225,0.123,0.078,south-southeast,4.9,No
2021/07/04,22:10,0.157,0.145,0.227,0.222,0.227,0.122,0.078,south,5.7,No
2021/07/04,22:20,0.156,0.145,0.228,0.219,0.226,0.123,0.077,south,4.9,No
2021/07/04,22:30,0.156,0.144,0.226,0.221,0.226,0.123,0.078,south-southeast,4.1,No
2021/07/04,22:40,0.157,0.145,0.229,0.220,0.227,0.123,0.078,south-southeast,5.3,No
2021/07/04,22:50,0.156,0.145,0.227,0.221,0.226,0.122,0.078,south,5.9,No
2021/07/04,23:00,0.158,0.146,0.226,0.220,0.228,0.123,0.078,south,5.2,No
2021/07/04,23:10,0.156,0.144,0.226,0.220,0.225,0.123,0.078,south,5.2,Yes
2021/07/04,23:20,0.157,0.146,0.228,0.222,0.229,0.123,0.078,south,4.2,Yes
2021/07/04,23:30,0.158,0.145,0.229,0.221,0.226,0.125,0.079,south,4.2,Yes
2021/07/04,23:40,0.159,0.147,0.229,0.223,0.228,0.124,0.081,south,4.3,Yes
2021/07/04,23:50,0.159,0.146,0.229,0.221,0.229,0.126,0.081,south,6.1,Yes
